STARLINK-11123, 59948

Orbit data source: Space-Track

STARLINK-11123, 59948 is a payload satellite owned by SpaceX/Seattle (US) in LEO that was launched on Wed, 05 Jun 2024 UTC via an FALCON 9 launch vehicle from the Air Force Eastern Test Range (AFETR). Payload-class satellites include a variety of spacecraft equipped with specific instruments for various scientific and technological missions. These include communications satellites like Starlink; space stations such as the ISS; scientific satellites like the Hubble; Earth observation satellites from companies like Planet Labs, Umbra, and HawkEye 360; GPS; miniature CubeSats for education and research; and military/defense satellites.

Loading next visibility...
Identifier
59948, 2024-107D
Orbit
LEO
Country
Flag of USUS
Related business
Manufacturer
SpaceX/Seattle
Mission
Operational spacecraft
Bus & Motor
STARLINK V2MD, Unknown motor
Mass
960 kg wet, ~910 kg dry
Launch date (UTC)
2024-06-05 (1 year ago)
Launch vehicle
FALCON 9
Launch site
Air Force Eastern Test Range (AFETR)
Object type
Payload
Rocket body
Debris
Shape & HBR
Unknown
Radar Cross Section
Large (>1 m²)

Expand to show TLE details & history
Last TLE update: 1 day ago

TLE from 1 day ago
0 STARLINK-11123
1 59948U 24107D   25260.63884418  .00002269  00000-0  23562-4 0  9997
2 59948  53.1589  24.5435 0001027  97.9873 262.1261 15.69733394 75028
Epoch: 2025-09-17T15:19Z
TLE epoch observation values (Epoch: 2025-09-17T15:19:56.137Z)
Latitude
-0.00004°
Longitude
157.74765°
Altitude
360.67 km
Speed
7.694 km/s
True Right ascension
01h 38m 10s
True Declination
0° 00' 00"
Sunlit
Object was in full shadow at epoch
Visualization orbit readout
Latitude
Unknown
Longitude
Unknown
Altitude
Unknown
Speed
Unknown
Apparent Right ascension
Unknown
Apparent Declination
Unknown
Sunlit
N/A
Visualization observer readout
Local Sidereal Time
13:53:34
Azimuth
Unknown
Elevation
Unknown
Doppler factor
Unknown
Orbital elements
Apogee altitude
360.613 km
Perigee altitude
359.229 km
Semi-major axis
6,738.058 km
Eccentricity
0.0001
Inclination
53.1589°
RAAN
24.5435°
Arg. of periapsis
97.9873°
True anomaly
262.11444°
Mean anomaly
262.1261°
Eccentric anomaly
262.12027°
Mean motion
3.92411 °/min
Orbital period
91.74 mins
BSTAR
0.000023562
Loading maneuver chart data...
Computing Atmospheric mass density...
Loading historical data...
Loading historical data...
Loading historical data...
Loading historical data...
Loading historical data...
Loading historical data...
Loading historical data...

Documentation

Showing up to 5 results
|